Date,TemperatureHighF,TemperatureAvgF,TemperatureLowF,DewpointHighF,DewpointAvgF,DewpointLowF,HumidityHigh,HumidityAvg,HumidityLow,PressureMaxIn,PressureMinIn,WindSpeedMaxMPH,WindSpeedAvgMPH,GustSpeedMaxMPH,PrecipitationSumIn
2014-1-1,22,16,9,10,4,-3,92,64,40,30.33,30.18,21,4,24,0.00
2014-1-2,14,0,-7,10,-4,-12,92,87,81,30.27,29.80,27,9,29,0.00
2014-1-3,4,-5,-15,-7,-13,-22,86,72,48,30.42,29.80,27,7,30,0.00
2014-1-4,18,6,-16,4,-6,-22,80,61,43,30.42,30.16,27,7,32,0.00
2014-1-5,50,20,-1,37,13,-7,98,78,56,30.25,29.31,20,3,21,0.51
2014-1-6,51,29,2,50,22,-16,99,78,42,29.87,29.25,24,7,27,0.96
2014-1-7,10,2,-6,1,-15,-20,74,46,36,30.37,29.62,19,5,28,0.00
2014-1-8,14,6,-6,3,-5,-14,83,64,48,30.51,30.22,11,2,13,0.00
2014-1-9,23,14,2,15,5,-3,87,71,52,30.59,30.39,23,3,23,0.00
2014-1-10,37,26,18,35,20,6,97,82,59,30.50,29.86,21,6,23,0.20
2014-1-11,52,42,31,52,40,25,100,94,60,30.15,29.19,21,6,24,0.07
2014-1-12,45,34,22,44,22,16,96,66,54,30.04,29.32,23,5,24,0.10
2014-1-13,42,32,22,27,23,16,85,73,58,30.04,29.88,23,6,27,0.00
2014-1-21,6,4,-5,-6,-9,-16,68,57,49,30.04,29.87,25,10,27,0.00
2014-1-22,5,-1,-8,-9,-13,-17,69,59,48,30.04,29.78,29,10,31,0.00
2014-1-23,13,4,-4,-3,-8,-14,68,59,44,30.28,29.95,18,4,18,0.00
2014-1-24,14,7,-3,-4,-7,-12,71,55,39,30.28,29.66,29,6,32,0.00
2014-1-25,16,13,10,13,6,-8,92,76,50,29.91,29.32,27,7,29,0.00
2014-1-26,22,12,5,11,-1,-8,88,61,43,29.82,29.37,19,7,25,0.00
2014-1-27,30,19,8,19,2,-17,71,51,29,30.23,29.45,31,8,31,0.00
2014-1-28,11,7,-4,-6,-12,-16,59,44,37,30.29,30.05,10,3,14,0.00
2014-1-29,19,9,-3,-2,-8,-13,74,48,28,30.34,29.96,16,2,16,0.00
2014-1-30,23,12,-4,2,-4,-13,71,51,39,30.43,29.97,24,5,26,0.00
2014-1-31,30,23,16,14,8,0,72,55,46,30.26,29.97,22,4,25,0.00
2014-2-1,37,30,17,23,17,10,81,63,48,30.28,29.82,20,5,24,0.00
2014-2-2,35,32,28,31,26,14,95,81,67,30.15,29.82,19,4,20,0.03
2014-2-3,28,23,16,20,16,5,93,77,65,30.40,30.09,17,4,18,0.01
2014-2-4,24,20,12,15,10,5,78,71,61,30.45,30.05,11,3,12,0.00
2014-2-5,22,19,14,20,16,2,95,89,75,30.25,29.63,20,5,23,0.00
2014-2-6,18,10,-6,9,1,-16,85,72,54,30.28,29.98,18,4,21,0.00
2014-2-7,27,8,-11,10,-2,-16,85,69,45,30.28,30.12,10,2,10,0.00
2014-2-8,19,10,-7,2,-3,-12,83,61,44,30.29,30.12,10,2,11,0.00
2014-2-9,21,15,5,13,6,-1,90,72,53,30.14,29.91,11,3,15,0.00
2014-2-10,20,14,7,11,3,-8,92,66,45,30.28,29.91,18,4,22,0.00
2014-2-11,18,10,0,1,-2,-12,74,60,45,30.51,30.22,20,5,22,0.00
2014-2-12,17,8,-6,2,-4,-12,80,60,42,30.53,30.10,12,4,13,0.00
2014-2-13,24,18,13,23,14,1,100,90,62,30.29,28.99,23,7,26,0.00
2014-2-14,33,24,15,23,16,10,100,77,55,29.75,29.00,23,4,26,0.00
2014-2-15,26,22,15,23,17,3,98,84,63,29.82,29.64,31,4,31,0.00
2014-2-16,21,16,11,11,4,-10,70,60,48,30.27,29.69,24,8,25,0.00
2014-2-17,21,9,1,1,-6,-11,65,51,33,30.33,30.06,14,4,16,0.00
2014-2-18,25,16,5,21,9,-7,94,77,43,30.27,29.88,9,3,9,0.00
2014-2-19,36,22,6,33,18,3,97,89,69,30.12,29.64,18,3,20,0.23
2014-2-20,42,33,20,28,22,14,94,70,45,30.17,29.90,13,3,16,0.07
2014-2-21,35,31,27,35,30,26,99,98,94,29.97,29.61,10,3,12,0.40
2014-2-22,49,37,28,30,21,13,100,62,28,29.95,29.79,22,5,26,0.01
2014-2-23,43,34,27,24,19,5,73,57,48,29.94,29.76,16,3,22,0.00
2014-2-24,30,22,10,18,5,-3,66,50,37,29.99,29.77,24,6,29,0.00
2014-2-25,22,14,3,8,1,-5,75,59,42,30.00,29.80,16,3,18,0.00
2014-2-26,21,10,1,6,-6,-14,75,53,27,29.90,29.66,19,4,26,0.00
2014-2-27,22,10,-3,9,-6,-17,77,51,37,30.22,29.54,28,5,32,0.00
2014-2-28,14,4,-6,-8,-13,-17,67,48,32,30.38,29.99,16,3,18,0.00
2014-3-1,28,17,-6,8,-1,-16,70,48,39,30.37,29.99,24,7,27,0.00
2014-3-2,27,22,13,15,8,-12,71,57,48,30.15,29.97,23,6,24,0.00
2014-3-3,15,9,3,2,-8,-13,69,49,34,30.34,30.05,20,7,20,0.00
2014-3-4,18,10,-5,1,-4,-13,75,57,41,30.36,30.18,11,2,16,0.00
2014-3-5,22,14,4,11,2,-13,80,62,53,30.59,30.18,17,5,19,0.00
2014-3-6,22,9,-2,-5,-8,-13,65,49,29,30.63,30.42,17,4,17,0.00
2014-3-7,33,21,5,17,9,-9,81,62,50,30.43,29.81,11,3,14,0.00
2014-3-8,43,29,13,23,19,7,86,68,46,29.93,29.74,20,3,20,0.00
2014-3-9,32,26,21,22,9,5,76,52,33,29.98,29.73,19,5,21,0.00
2014-3-10,40,32,21,25,18,7,65,58,50,29.84,29.46,15,3,18,0.00
2014-3-11,53,40,28,30,24,21,79,57,33,29.67,29.46,16,3,16,0.00
2014-3-12,36,28,16,30,23,-3,98,85,61,29.67,29.08,29,6,35,0.41
2014-3-13,17,12,7,14,0,-5,91,63,41,30.09,29.23,31,10,35,0.00
2014-3-14,36,22,7,20,8,-3,74,58,41,30.11,29.65,24,6,30,0.00
2014-3-15,47,37,29,26,21,4,72,56,41,30.12,29.65,31,7,34,0.00
2014-3-16,29,20,11,13,1,-6,58,45,33,30.20,29.96,26,7,27,0.00
2014-3-17,23,14,9,-2,-4,-7,58,46,30,30.17,30.02,19,6,19,0.00
2014-3-18,18,18,18,1,1,1,49,49,49,30.27,30.27,3,2,3,0.00
2014-3-20,43,38,30,26,20,14,58,50,44,29.87,29.63,24,6,24,0.04
2014-3-21,36,31,21,20,15,11,80,55,45,30.03,29.79,24,6,24,0.00
2014-3-22,49,32,19,29,19,11,80,62,37,30.02,29.67,23,6,28,0.00
2014-3-23,33,26,14,20,8,-1,66,50,38,30.18,29.94,23,7,24,0.00
2014-3-24,26,18,10,3,0,-5,69,49,30,30.18,30.04,21,5,21,0.00
2014-3-25,33,22,7,13,6,0,79,56,37,30.11,29.76,26,3,30,0.00
2014-3-26,25,22,17,14,4,-5,68,49,35,30.29,29.77,37,10,39,0.00
2014-3-27,36,26,15,14,6,2,61,46,31,30.35,30.02,19,6,21,0.00
2014-3-28,45,36,31,43,29,13,94,78,46,30.16,29.86,23,7,23,0.22
2014-3-29,45,39,34,41,34,29,98,84,68,30.20,29.60,15,5,18,1.13
2014-3-30,35,33,31,35,32,23,100,98,90,29.86,29.60,24,9,28,1.71
2014-3-31,42,33,29,28,24,19,92,71,57,30.11,29.74,31,10,36,0.08
2014-4-1,49,38,29,29,23,19,74,60,44,30.11,29.93,16,6,18,0.00
2014-4-2,56,42,33,35,29,21,80,63,40,30.11,29.94,14,4,16,0.00
2014-4-3,47,40,30,25,21,17,72,51,36,30.12,30.00,21,7,23,0.00
2014-4-4,45,36,31,32,24,19,97,65,47,30.06,29.67,18,5,20,0.07
2014-4-5,44,36,31,40,25,16,98,69,43,30.12,29.67,23,5,24,0.01
2014-4-6,53,38,24,20,18,15,80,49,26,30.14,30.00,18,4,19,0.00
2014-4-7,49,37,24,38,24,15,96,65,29,30.15,29.38,14,3,17,0.12
2014-4-8,61,45,35,50,38,27,99,77,45,29.68,29.26,22,6,24,0.09
2014-4-9,48,40,23,32,21,7,82,50,25,30.08,29.57,27,7,30,0.00
2014-4-10,60,45,22,32,23,11,74,45,31,30.10,29.83,27,7,29,0.00
2014-4-11,60,48,34,46,37,29,98,70,46,30.15,29.83,16,4,16,0.44
2014-4-12,65,48,33,50,34,28,99,68,27,30.18,29.97,14,3,15,0.01
2014-4-13,74,59,42,50,42,28,67,54,41,30.12,29.84,26,8,28,0.00
2014-4-14,74,64,58,53,50,47,80,61,41,29.88,29.60,36,10,36,0.00
2014-4-15,61,47,25,57,43,11,98,87,68,30.20,29.43,34,9,37,1.30
2014-4-16,36,28,19,24,12,7,98,55,35,30.69,29.89,29,7,32,0.00
2014-4-17,47,34,19,22,16,12,84,53,31,30.70,30.46,13,3,17,0.00
2014-4-18,44,34,24,25,21,16,85,63,43,30.56,30.14,16,3,16,0.00
2014-4-19,55,43,26,30,24,18,86,52,30,30.45,30.14,24,6,28,0.00
2014-4-20,58,45,26,26,21,18,80,44,23,30.46,30.14,14,4,18,0.00
2014-4-21,67,52,35,34,23,15,63,37,15,30.23,29.63,17,5,20,0.00
2014-4-22,66,54,41,48,39,27,91,60,37,29.76,29.43,21,5,22,0.02
2014-4-23,50,42,35,46,31,11,85,68,41,29.83,29.47,34,9,34,0.05
2014-4-24,51,42,34,24,15,11,58,36,22,30.00,29.75,31,10,34,0.00
2014-4-25,59,45,29,36,22,15,94,46,21,30.01,29.69,21,5,26,0.19
2014-4-26,54,44,37,44,37,28,97,79,54,29.91,29.64,19,4,21,0.27
2014-4-27,48,42,36,36,32,28,77,67,56,30.11,29.82,22,6,24,0.00
2014-4-28,56,47,34,35,30,26,83,55,37,30.25,29.97,24,7,29,0.00
2014-4-29,48,41,35,35,33,29,94,75,57,30.41,30.09,17,4,17,0.30
2014-4-30,47,39,35,47,38,32,99,96,90,30.41,29.72,10,3,10,0.94
2014-5-1,71,53,39,58,46,35,99,82,44,29.95,29.59,20,4,22,0.25
2014-5-2,60,51,38,43,37,31,92,62,39,29.82,29.65,14,3,18,0.00
2014-5-3,61,52,43,42,37,31,84,59,38,29.81,29.63,18,5,23,0.60
2014-5-4,57,48,41,42,32,23,92,58,29,29.83,29.56,24,8,37,0.01
2014-5-5,58,49,40,35,31,27,69,53,37,29.89,29.70,25,8,27,0.00
2014-5-6,57,50,37,33,27,22,68,45,29,30.16,29.85,23,5,27,0.00
2014-5-7,61,48,33,40,29,23,79,51,31,30.20,30.06,15,2,16,0.00
2014-5-8,63,52,41,49,43,30,87,73,59,30.12,30.01,11,3,12,0.35
2014-5-9,57,54,49,56,52,47,99,94,87,30.13,29.80,18,5,18,0.36
2014-5-10,75,62,51,63,54,36,100,79,45,29.94,29.71,24,4,32,0.31
2014-5-11,73,59,45,45,35,26,82,46,20,30.06,29.82,21,4,24,0.00
2014-5-12,81,64,44,51,43,37,84,52,28,30.12,29.93,14,3,15,0.00
2014-5-13,70,59,48,46,41,36,68,52,42,30.24,30.00,19,5,21,0.00
2014-5-14,72,59,45,55,45,36,97,63,45,30.23,30.11,22,6,23,0.00
2014-5-15,65,61,55,64,59,52,99,94,82,30.19,29.89,16,4,19,0.28
2014-5-16,68,61,44,62,57,38,98,89,75,30.02,29.74,22,6,28,1.25
2014-5-17,58,49,42,47,39,30,99,69,50,30.16,29.76,16,5,16,1.37
2014-5-18,58,50,35,37,31,24,89,51,33,30.17,30.07,18,6,19,0.00
2014-5-19,62,50,34,46,34,25,93,58,35,30.15,30.01,27,4,32,0.00
2014-5-20,70,56,37,46,38,34,93,57,28,30.08,29.91,19,4,21,0.00
2014-5-21,71,59,42,52,45,37,90,62,35,29.95,29.77,14,3,14,0.00
2014-5-22,58,55,50,54,52,47,98,89,76,29.83,29.72,10,2,12,0.03
2014-5-23,60,53,49,56,50,47,99,91,75,29.99,29.80,13,2,13,0.05
2014-5-24,63,55,44,52,48,42,97,81,60,30.04,29.90,10,3,11,0.03
2014-5-25,74,60,43,54,47,41,96,67,37,30.05,29.95,10,2,11,0.00
2014-5-26,81,65,50,56,50,45,86,62,33,29.98,29.80,16,2,17,0.00
2014-5-27,82,64,48,63,55,44,95,76,43,29.87,29.67,11,2,11,0.31
2014-5-28,60,50,37,56,45,33,93,81,71,30.19,29.75,10,3,12,0.00
2014-5-29,65,53,36,45,41,34,94,65,46,30.19,30.03,13,3,15,0.00
2014-5-30,69,54,41,53,46,40,99,76,43,30.13,29.97,29,3,39,0.18
2014-5-31,65,55,41,51,44,39,99,72,48,30.32,30.06,23,4,26,0.01
2014-6-1,72,58,41,52,43,37,96,61,34,30.33,30.14,14,2,14,0.00
2014-6-2,79,66,48,57,50,37,90,59,45,30.17,29.91,14,2,14,0.00
2014-6-3,83,66,54,64,59,50,99,81,51,29.94,29.74,16,2,18,0.30
2014-6-4,72,64,55,61,50,43,99,66,37,29.83,29.64,14,4,16,0.14
2014-6-5,69,59,54,57,50,43,97,74,45,29.79,29.60,19,4,19,0.28
2014-6-6,68,61,53,50,47,43,76,61,48,29.95,29.73,19,5,21,0.00
2014-6-7,76,63,48,55,50,43,93,65,39,29.96,29.84,16,3,16,0.00
2014-6-8,79,67,48,61,52,46,96,63,41,29.92,29.78,11,2,11,0.17
2014-6-9,63,60,57,60,56,50,96,87,65,29.94,29.83,8,2,9,0.18
2014-6-10,73,64,57,63,58,52,95,83,62,30.06,29.88,12,2,12,0.07
2014-6-11,65,57,54,57,54,51,97,92,75,30.09,29.96,9,2,10,0.47
2014-6-12,61,57,53,61,56,51,100,96,92,30.04,29.80,6,2,8,0.13
2014-6-13,66,62,58,66,62,51,100,99,83,29.89,29.68,16,2,19,0.58
2014-6-14,62,58,50,62,49,43,100,75,57,30.04,29.74,20,6,24,0.06
2014-6-15,70,60,48,53,49,44,91,70,52,30.12,29.96,18,4,19,0.00
2014-6-16,78,66,48,59,53,45,94,66,47,30.12,29.94,12,2,12,0.00
2014-6-17,83,73,56,66,60,51,90,66,53,30.00,29.73,25,3,29,0.39
2014-6-18,74,67,59,66,58,55,98,75,59,29.96,29.74,25,4,25,0.39
2014-6-19,76,70,57,65,52,41,98,56,39,29.98,29.90,16,5,18,0.00
2014-6-20,71,62,51,47,42,39,73,50,35,29.97,29.86,15,4,17,0.00
2014-6-21,70,58,43,52,45,39,91,66,41,29.96,29.83,13,2,15,0.00
2014-6-22,75,60,46,52,47,43,95,67,37,30.04,29.88,12,2,12,0.00
2014-6-23,78,65,49,59,52,46,94,66,41,30.07,29.97,12,2,14,0.00
2014-6-24,74,66,60,60,54,50,75,66,57,30.06,29.88,16,4,19,0.00
2014-6-25,79,68,63,67,62,54,100,81,65,29.92,29.75,23,4,31,6.11
2014-6-26,75,67,60,67,61,53,100,82,58,30.06,29.77,17,4,18,0.12
2014-6-27,78,65,53,59,53,45,96,69,33,30.23,29.95,16,3,17,0.00
2014-6-28,80,65,51,61,55,47,96,73,35,30.24,30.15,7,2,8,0.00
2014-6-29,81,69,56,63,57,51,91,67,46,30.20,29.98,11,2,11,0.00
2014-6-30,78,70,58,64,59,51,83,70,60,30.03,29.82,14,3,18,0.00
2014-7-1,84,75,64,69,65,59,89,73,58,29.87,29.70,18,3,20,0.00
2014-7-2,84,71,66,72,66,62,100,88,67,29.90,29.73,15,3,17,0.20
2014-7-3,82,69,62,73,66,61,100,93,72,29.98,29.80,19,2,19,0.45
2014-7-4,65,61,58,63,58,46,100,90,68,30.02,29.88,21,3,24,1.31
2014-7-5,75,64,49,50,47,41,93,57,36,30.06,29.93,21,6,26,0.00
2014-7-6,78,66,48,57,53,45,95,65,38,30.02,29.76,15,2,18,0.00
2014-7-7,82,70,65,71,62,54,94,76,55,29.83,29.63,16,3,18,0.29
2014-7-8,81,72,63,72,65,60,95,81,64,29.78,29.56,20,3,23,0.18
2014-7-9,79,68,61,67,62,54,100,82,58,30.04,29.65,15,3,20,0.02
2014-7-10,74,64,55,60,55,49,96,74,48,30.19,29.93,12,3,13,0.00
2014-7-11,77,64,52,55,52,47,92,69,43,30.20,30.12,11,2,14,0.00
2014-7-12,80,68,52,65,58,50,97,73,52,30.18,29.97,11,2,14,0.00
2014-7-13,75,67,64,67,63,54,100,85,66,30.03,29.79,21,3,21,0.28
2014-7-14,77,69,65,73,66,63,100,90,70,29.87,29.71,11,2,11,0.02
2014-7-15,78,68,60,73,66,57,100,92,70,29.78,29.66,20,2,21,1.98
2014-7-16,74,65,52,65,58,49,100,79,58,29.93,29.70,11,3,13,0.40
2014-7-17,72,60,52,57,52,46,95,77,56,30.18,29.86,17,2,19,0.01
2014-7-18,74,60,47,59,52,46,98,78,48,30.22,30.08,8,2,9,0.00
2014-7-19,72,61,54,60,56,52,98,84,59,30.23,30.12,6,1,8,0.00
2014-7-20,75,62,54,62,55,52,99,79,51,30.16,30.05,6,1,6,0.00
2014-7-21,78,65,54,64,59,53,98,82,55,30.16,30.07,6,1,8,0.00
2014-7-22,82,71,59,67,64,57,97,78,60,30.11,29.88,10,2,12,0.00
2014-7-23,84,72,64,71,66,56,98,83,63,29.94,29.68,14,3,16,0.74
2014-7-24,72,64,51,63,54,45,95,72,52,29.97,29.76,19,5,21,0.02
2014-7-25,75,63,50,60,53,45,87,71,52,30.00,29.90,9,2,10,0.00
2014-7-26,75,65,54,61,57,51,93,75,52,29.93,29.71,11,2,12,0.00
2014-7-27,79,69,63,70,63,57,96,83,64,29.83,29.48,14,2,16,0.33
2014-7-28,72,63,59,67,60,47,100,88,77,29.76,29.40,26,4,32,0.89
2014-7-29,68,60,52,53,49,46,91,70,49,29.98,29.64,12,4,14,0.00
2014-7-30,71,60,50,59,52,48,98,78,48,30.03,29.92,7,2,9,0.00
2014-7-31,75,64,53,60,56,50,95,78,56,30.14,29.98,14,2,16,0.00
2014-8-1,78,66,56,67,60,54,98,83,61,30.15,30.09,10,2,11,0.00
2014-8-2,74,66,57,66,58,53,97,79,54,30.15,30.05,10,2,11,0.00
2014-8-3,75,64,55,65,58,53,98,84,59,30.09,29.96,8,1,8,0.00
2014-8-4,78,68,59,64,61,55,97,81,58,30.02,29.96,14,2,14,0.00
2014-8-5,80,67,56,68,61,55,100,84,54,30.01,29.84,19,2,24,1.17
2014-8-6,74,66,58,64,57,47,100,76,51,29.90,29.79,13,3,13,0.02
2014-8-7,71,60,49,58,51,46,96,74,44,30.04,29.86,23,3,24,0.00
2014-8-8,75,61,47,58,53,46,99,78,51,30.10,29.97,17,2,18,0.00
2014-8-9,77,63,50,58,54,48,97,75,43,30.12,30.02,13,2,14,0.00
2014-8-10,79,64,52,60,55,50,98,75,37,30.12,30.04,10,2,11,0.00
2014-8-11,80,66,52,63,56,51,99,74,47,30.10,30.00,10,2,11,0.00
2014-8-12,73,64,58,65,59,52,96,85,65,30.05,29.75,14,2,17,0.00
2014-8-13,67,63,57,65,59,43,97,88,73,29.85,29.62,17,3,17,0.16
2014-8-14,69,60,48,53,48,43,89,67,42,29.86,29.72,11,3,15,0.00
2014-8-15,62,55,48,55,49,46,97,81,60,29.93,29.83,11,2,12,0.00
2014-8-16,69,59,49,54,51,47,95,77,54,29.95,29.78,11,2,13,0.18
2014-8-17,71,61,53,61,53,47,99,76,50,29.86,29.78,19,3,21,0.19
2014-8-18,70,59,49,54,49,43,95,73,45,29.89,29.78,16,3,18,0.00
2014-8-19,74,58,44,58,51,43,97,80,50,29.93,29.83,8,1,8,0.00
2014-8-20,78,67,54,65,60,53,98,78,61,29.99,29.89,11,2,11,0.00
2014-8-21,72,66,59,64,59,54,95,81,70,30.00,29.93,14,3,15,0.32
2014-8-22,64,61,59,62,59,56,100,92,80,30.06,29.95,10,2,10,0.33
2014-8-23,68,61,52,59,56,51,100,84,64,30.13,30.02,11,2,11,0.00
2014-8-24,74,62,52,61,56,51,100,84,54,30.15,30.06,13,3,15,0.01
2014-8-25,81,64,53,63,57,52,100,80,44,30.17,30.07,10,2,11,0.00
2014-8-26,81,67,54,69,59,53,100,79,50,30.14,29.95,11,2,13,0.00
2014-8-27,83,68,60,70,62,51,94,81,59,29.99,29.83,16,3,16,0.09
2014-8-28,71,63,47,55,50,44,93,64,42,30.13,29.84,20,6,23,0.01
2014-8-29,71,60,47,55,50,44,94,74,52,30.22,30.03,13,2,13,0.00
2014-8-30,73,64,50,60,55,48,94,74,57,30.22,30.00,17,3,17,0.00
2014-8-31,74,68,65,68,64,59,98,86,77,30.05,29.89,10,3,13,0.00
2014-9-1,82,71,63,73,66,63,100,85,61,29.97,29.82,9,2,10,0.00
2014-9-2,86,76,65,70,67,55,97,75,56,29.92,29.69,12,2,13,0.41
2014-9-3,77,66,51,63,55,49,97,70,41,30.15,29.74,14,4,18,0.01
2014-9-4,81,66,50,63,56,49,98,73,46,30.15,30.03,9,2,10,0.00
2014-9-5,82,73,58,69,64,55,96,75,61,30.11,29.87,16,3,21,0.00
2014-9-6,83,69,56,71,62,51,97,79,53,30.02,29.75,19,4,21,0.14
2014-9-7,71,61,47,57,50,44,95,70,41,30.29,29.91,14,4,14,0.01
2014-9-8,71,59,47,54,50,43,97,73,48,30.31,30.18,10,2,14,0.00
2014-9-9,68,57,44,55,50,43,97,79,62,30.29,30.09,8,2,8,0.00
2014-9-10,71,60,46,58,52,45,97,78,53,30.12,29.82,12,2,12,0.00
2014-9-11,72,62,51,67,57,44,93,83,72,30.08,29.73,20,5,21,0.00
2014-9-12,61,54,44,49,44,38,82,68,56,30.21,29.96,18,7,20,0.00
2014-9-13,53,49,43,53,45,38,99,87,76,30.24,30.06,14,3,16,0.25
2014-9-14,57,48,39,46,40,36,98,74,56,30.25,30.14,16,5,18,0.01
2014-9-15,61,50,37,46,41,36,98,76,42,30.22,29.97,16,2,17,0.00
2014-9-16,61,51,37,55,47,36,96,86,70,30.03,29.93,8,2,8,0.07
2014-9-17,64,50,37,54,42,36,98,79,47,30.02,29.91,8,2,8,0.00
2014-9-18,66,52,38,56,44,30,99,77,53,30.31,29.92,14,3,16,0.00
2014-9-19,57,48,39,41,36,30,82,66,48,30.34,30.13,12,3,13,0.00
2014-9-20,67,58,44,56,50,38,93,76,63,30.29,29.86,19,4,19,0.00
2014-9-21,73,64,55,63,58,47,95,81,67,30.01,29.53,12,4,15,0.00
2014-9-22,59,53,37,53,42,33,93,67,50,30.23,29.57,21,6,24,0.00
2014-9-23,65,50,37,49,41,33,97,73,48,30.50,30.11,8,2,10,0.00
2014-9-24,66,53,42,60,46,41,99,80,49,30.55,30.39,10,2,11,0.00
2014-9-25,62,52,46,51,46,43,98,81,58,30.47,30.21,12,3,13,0.00
2014-9-26,71,57,46,55,49,44,100,78,48,30.23,30.12,18,4,18,0.00
2014-9-27,75,59,46,56,51,45,99,78,49,30.21,30.12,15,3,15,0.00
2014-9-28,79,62,46,62,54,45,99,78,47,30.15,29.94,6,1,7,0.00
2014-9-29,70,59,49,59,53,48,99,82,52,29.97,29.87,6,1,6,0.00
2014-9-30,67,59,51,58,54,48,97,84,68,30.01,29.88,9,1,10,0.00
2014-10-1,58,55,50,58,54,48,100,97,88,30.12,29.97,9,2,10,0.25
2014-10-2,64,57,44,56,53,43,100,90,67,30.15,30.05,9,2,11,0.01
2014-10-3,67,57,44,53,47,43,99,74,47,30.08,29.64,13,3,14,0.02
2014-10-4,54,51,42,54,49,29,100,93,71,29.79,29.47,13,3,14,0.58
2014-10-5,55,44,34,42,34,29,93,69,42,29.99,29.63,10,2,13,0.00
2014-10-6,64,51,32,52,40,29,96,69,42,30.01,29.92,14,4,19,0.00
2014-10-7,66,58,50,54,48,43,95,73,47,30.00,29.64,24,3,24,0.42
2014-10-8,65,58,52,55,46,30,97,67,39,29.94,29.64,18,5,20,0.43
2014-10-9,62,51,39,40,35,28,80,56,33,30.04,29.83,21,3,24,0.00
2014-10-10,59,47,32,43,35,28,93,66,43,30.09,29.99,10,2,10,0.00
2014-10-11,54,46,41,43,39,27,94,79,55,30.22,30.01,13,2,13,0.00
2014-10-12,57,43,32,38,33,27,92,71,44,30.26,30.14,13,2,14,0.00
2014-10-13,58,48,36,49,42,30,87,77,67,30.26,30.13,18,3,18,0.00
2014-10-14,71,62,52,65,57,48,100,84,61,30.18,29.97,17,5,19,0.00
2014-10-15,75,67,64,64,61,58,97,81,65,30.03,29.68,22,5,23,0.91
2014-10-16,66,62,54,66,59,45,100,90,71,29.80,29.58,18,3,18,0.96
2014-10-17,66,57,47,56,48,45,97,75,51,29.66,29.51,19,4,22,0.00
2014-10-18,58,53,48,51,46,31,90,78,65,29.82,29.50,23,4,24,0.05
2014-10-19,48,41,35,38,28,21,74,62,50,30.02,29.67,26,8,36,0.00
2014-10-20,48,39,26,35,29,21,91,71,56,30.03,29.85,12,3,13,0.00
2014-10-21,48,45,42,47,42,35,99,89,65,30.01,29.85,17,3,18,0.70
2014-10-22,48,45,44,45,43,40,100,93,84,30.04,29.76,29,8,34,1.13
2014-10-23,44,43,41,43,41,40,98,95,89,29.86,29.73,20,8,23,1.82
2014-10-24,49,44,41,43,41,30,97,90,71,29.82,29.73,19,6,24,0.02
2014-10-25,60,47,32,48,39,30,98,78,54,29.81,29.46,28,3,31,0.11
2014-10-26,50,45,40,43,38,34,96,78,61,29.87,29.46,24,5,29,0.12
2014-10-27,57,46,36,41,36,30,89,69,46,29.99,29.74,14,3,15,0.00
2014-10-28,65,50,35,47,41,30,91,72,50,29.99,29.78,13,3,13,0.00
2014-10-29,58,50,39,52,46,35,98,89,69,29.92,29.78,9,2,10,0.54
2014-10-30,50,41,33,45,35,22,99,81,57,30.00,29.88,16,3,18,0.01
2014-10-31,47,37,26,39,30,22,96,79,61,30.01,29.88,16,2,18,0.00
2014-11-1,42,38,33,36,30,19,93,78,61,29.91,29.82,33,8,39,0.07
2014-11-2,40,36,33,30,20,5,88,57,39,30.01,22.37,35,11,37,0.00
2014-11-3,54,42,33,30,25,17,75,55,35,30.07,29.93,21,5,23,0.00
2014-11-4,63,51,37,31,28,23,73,45,29,30.08,29.89,17,4,18,0.00
2014-11-5,57,50,37,38,29,24,73,47,29,30.09,29.89,12,3,12,0.00
2014-11-6,42,38,36,38,34,28,99,85,73,30.08,29.53,13,2,14,0.15
2014-11-7,42,38,33,38,29,18,99,75,54,29.95,29.53,23,7,29,0.01
2014-11-8,42,37,31,25,21,18,63,55,45,29.96,29.79,23,5,23,0.00
2014-11-9,48,40,27,30,26,21,84,61,45,30.08,29.81,10,3,11,0.00
2014-11-10,53,40,27,36,29,22,90,68,43,30.11,29.96,18,3,18,0.00
2014-11-11,56,48,42,47,41,29,87,77,58,30.07,29.81,16,5,17,0.00
2014-11-12,58,45,33,52,38,16,96,79,64,30.08,29.80,19,7,22,0.00
2014-11-13,39,34,24,26,22,16,97,66,50,30.08,29.93,12,3,13,0.01
2014-11-14,34,30,26,26,20,14,97,71,48,30.24,29.91,19,5,19,0.05
2014-11-15,34,26,17,17,13,9,79,62,41,30.31,30.12,18,4,19,0.00
2014-11-16,34,29,20,22,18,12,78,66,52,30.31,29.83,19,5,25,0.25
2014-11-17,37,33,29,36,30,11,98,90,63,30.03,29.43,20,3,23,0.68
2014-11-18,35,25,17,31,9,-1,89,54,36,30.11,29.50,21,6,26,0.00
2014-11-19,27,21,12,8,4,0,65,49,39,30.15,29.84,22,5,26,0.00
2014-11-20,37,27,17,17,12,0,81,57,37,30.11,29.74,21,5,22,0.00
2014-11-21,27,21,11,13,5,0,82,54,40,30.40,29.93,25,4,27,0.00
2014-11-22,37,26,10,19,10,2,76,55,36,30.40,30.02,23,6,28,0.00
2014-11-23,52,43,35,27,23,18,54,47,39,30.10,29.52,19,5,19,0.51
2014-11-24,65,54,37,61,47,26,98,79,51,29.94,29.42,20,6,21,0.57
2014-11-25,57,47,33,50,31,21,79,57,40,30.18,29.65,16,4,17,0.00
2014-11-26,37,30,26,25,24,21,98,83,62,30.18,29.82,14,2,16,0.00
2014-11-27,28,25,21,27,24,18,100,99,97,30.08,29.83,1,0,1,0.00
2014-11-28,29,22,10,22,15,3,98,79,60,30.28,29.99,17,2,17,0.00
2014-11-29,32,18,7,17,11,3,90,79,69,30.30,30.07,16,4,16,0.00
2014-11-30,40,33,25,30,25,17,79,75,73,30.13,29.94,19,6,19,0.28
2014-12-1,42,37,30,37,28,11,82,72,56,30.62,29.94,27,6,29,0.00
2014-12-2,32,26,22,25,16,11,91,67,56,30.64,30.02,21,4,23,0.11
2014-12-3,38,33,28,37,30,15,99,91,64,30.27,29.85,19,5,20,0.12
2014-12-4,34,29,19,23,16,11,81,61,48,30.59,30.12,17,4,18,0.00
2014-12-5,30,24,16,24,17,11,89,79,67,30.59,30.16,9,2,9,0.09
2014-12-6,31,30,28,31,28,16,100,97,89,30.47,30.10,26,4,26,0.89
2014-12-7,30,24,12,29,13,-6,99,66,45,30.67,30.26,26,10,28,0.02
2014-12-8,24,16,9,16,5,-5,77,65,48,30.69,30.16,14,4,14,0.00
2014-12-9,32,27,23,30,24,16,99,92,77,30.37,29.57,28,7,31,0.22
2014-12-10,32,28,25,30,26,20,100,96,86,29.66,29.49,19,7,21,0.23
2014-12-11,29,26,24,25,22,17,95,90,83,29.90,29.50,18,2,20,0.02
2014-12-12,28,26,25,21,19,17,82,76,70,29.94,29.79,23,6,24,0.00
2014-12-13,34,30,26,25,22,19,85,76,61,29.94,29.82,23,6,27,0.01
2014-12-14,36,33,30,28,26,23,90,80,71,30.02,29.82,18,5,20,0.00
2014-12-15,33,31,28,26,24,20,84,78,73,30.08,29.93,17,6,19,0.00
2014-12-16,35,31,24,34,27,20,96,91,84,30.07,29.76,9,2,10,0.09
2014-12-17,38,36,32,38,34,21,100,94,77,29.86,29.73,16,2,17,0.11
2014-12-18,35,32,30,27,22,17,85,72,65,29.99,29.78,24,6,26,0.01